Tracking 19170 objects as of 23-May-2018
HD Live streaming from Space Station
objects crossing your sky now

FENGYUN 1C DEB

Track FENGYUN 1C DEB now!
10-day predictions


NORAD ID: 30400
Int'l Code: 1999-025ADP
Perigee: 736.4 km
Apogee: 1,149.5 km
Inclination: 99.2 °
Period: 103.7 minutes
Semi major axis: 7313 km
RCS: 0.0229 m2 (small)
Launch date: May 10, 1999
Source: People's Republic of China (PRC)
Launch site: Taiyaun Space Center, China (TSC)

Note: This is SATELLITE DEBRIS
aabbcc
Your satellite tracking list
Your tracking list is empty




NASA's NSSDC Master Catalog

Two Line Element Set (TLE):
1 30400U 99025ADP 18142.71861053  .00000397  00000-0  27103-3 0  9994
2 30400  99.1629  57.6407 0282421 298.2956 112.7364 13.87963240570788
Source of the keplerian elements: AFSPC